Location: Malmö
(55.6090°N, 13.0007°E)
Time: 02:05:26
(UTC+01:00)

ISS - Pass Details

Date: 28 January 2021
Orbit: 417 x 422 km, 51.6° (Epoch: 06 March)

Event Time Altitude Azimuth Distance (km) Brightness Sun altitude
Rises 18:47:56 0° 264° (W) 2,375 1.8 -18.5°
Reaches altitude 10° 18:50:06 10° 257° (WSW) 1,511 0.3 -18.8°
Maximum altitude 18:53:19 41° 186° (S) 629 -2.9 -19.3°
Enters shadow 18:53:44 39° 165° (SSE) 653 -2.9 -19.3°
